sat.trackr.live / text

‹ back to catalog

ZACUBE-1 (TSHEPISOSAT)

NORAD 39417 · 2013-066B

PAYLOAD ACTIVE UNKNOWN

§ Identity

Operator
Country
SAFR
Launch date
2013-11-21
Launch site
DLS
Launch vehicle
Mass (kg)
RCS (m²)
0.07

Purposes: comms, tech_demo

External: N2YO · Heavens-Above · Gunter

§ Orbital elements

Epoch: 2026-05-25T03:26:20.536800Z

Period
95.94 min
Inclination
97.8108°
Eccentricity
0.0040393
Mean motion
15.00987824 rev/d
Perigee alt
535.8 km
Apogee alt
591.9 km
Semi-major
6,942.0 km
B*
3.1850e-4
RAAN
107.3549°
Arg perigee
329.4960°
Mean anomaly
30.3915°
Rev number
67,727

§ Raw data

ZACUBE-1 (TSHEPISOSAT)1 39417U 13066B   26145.14329325  .00004071  00000+0  31850-3 0  99982 39417  97.8108 107.3549 0040393 329.4960  30.3915 15.00987824677274

JSON: /api/v1/satellites/39417 · /tle

For live sub-satellite position, see the globe view (requires WebGL).

§ Visibility from observer

Set your observer location to see the next 7 days of passes ≥ 10°. The values pass through the URL so the page stays shareable.

No JS? Fill the form by hand. The geolocation button needs JavaScript.

§ Radio — SatNOGS DB

ModeDescriptionDownlinkUplink
CW 14.099 MHz CW Beacon 14.099 MHz
FSK FSK1k2 TLM 437.356 MHz
FSK FSK9K6 TLM 437.356 MHz

3 transmitters · refreshed weekly from db.satnogs.org